Camarillo, CA

6:54 AM PDT on August 29, 2016 (GMT -0700)
Camarillo

Weather History for KCMA - August, 2012

Change the Weather History Date:

Sunday, August 12, 2012

  Actual Average Record
Temperature  
Mean Temperature 74 °F 68 °F  
Max Temperature 83 °F 77 °F 86 °F (1998)
Min Temperature 64 °F 59 °F 48 °F (1948)
Degree Days  
Heating Degree Days 0 0  
Month to date heating degree days 0 0  
Since 1 June heating degree days 73 53  
Since 1 July heating degree days 33 10  
Cooling Degree Days 9 3  
Month to date cooling degree days 51 36  
Year to date cooling degree days 85 161  
Since 1 June cooling degree days 70 130  
Growing Degree Days 23 (Base 50)    
Moisture  
Dew Point 60 °F    
Average Humidity 67    
Maximum Humidity 87    
Minimum Humidity 47    
Precipitation  
Precipitation 0.00 in 0.01 in 0.00 in (2016)
Month to date precipitation 0.03 0.02  
Year to date precipitation 5.71 11.02  
Since 1 July precipitation 0.03  
Sea Level Pressure  
Sea Level Pressure 29.82 in    
Wind  
Wind Speed 4 mph (West)    
Max Wind Speed 12 mph    
Max Gust Speed 17 mph    
Visibility 10 miles    
Events      
T = Trace of Precipitation, MM = Missing Value Source: NWS Daily Summary

Daily Weather History Graph

Daily Weather History Graph

Search for Another Location

Airport or City:

Trip Planner

Search our weather history database for the weather conditions in past years. The results will help you decide how hot, cold, wet, or windy it might be!

Date:

Astronomy

Aug. 12, 2012 Rise Set
Actual Time 6:15 AM PDT 7:46 PM PDT
Civil Twilight 5:49 AM PDT 8:12 PM PDT
Nautical Twilight 5:17 AM PDT 8:44 PM PDT
Astronomical Twilight 4:43 AM PDT 9:18 PM PDT
Moon 1:38 AM PDT (8/12) 4:09 PM PDT (8/12)
Length of Visible Light 14h 23m
Length of Day
13h 30m
Waning Crescent, 23% of the Moon is Illuminated
Aug 12
Waning Crescent
Aug 17
New
Aug 24
First Quarter
Aug 31
Full
Sep 8
Last Quarter

Hourly Weather History & Observations

Time (PDT) Temp. Heat Index Dew Point Humidity Pressure Visibility Wind Dir Wind Speed Gust Speed Precip Events Conditions
12:55 AM 68.0 °F - 60.1 °F 76% 29.83 in 10.0 mi Calm Calm - N/A   Clear
1:55 AM 68.0 °F - 60.1 °F 76% 29.82 in 10.0 mi Calm Calm - N/A   Clear
2:55 AM 66.0 °F - 60.1 °F 81% 29.82 in 10.0 mi West 4.6 mph - N/A   Clear
3:55 AM 64.9 °F - 61.0 °F 87% 29.81 in 10.0 mi WNW 3.5 mph - N/A   Clear
4:55 AM 64.9 °F - 60.1 °F 84% 29.82 in 10.0 mi Calm Calm - N/A   Clear
5:55 AM 64.0 °F - 60.1 °F 87% 29.82 in 9.0 mi Calm Calm - N/A   Clear
6:55 AM 64.0 °F - 61.0 °F 90% 29.83 in 10.0 mi Calm Calm - N/A   Clear
7:55 AM 66.9 °F - 61.0 °F 81% 29.84 in 8.0 mi Calm Calm - N/A   Clear
8:55 AM 71.1 °F - 62.1 °F 73% 29.85 in 10.0 mi West 3.5 mph - N/A   Clear
9:55 AM 75.0 °F - 62.1 °F 64% 29.86 in 10.0 mi Variable 3.5 mph - N/A   Clear
10:55 AM 77.0 °F - 61.0 °F 58% 29.84 in 10.0 mi West 5.8 mph - N/A   Clear
11:55 AM 80.1 °F 80.9 °F 60.1 °F 50% 29.83 in 10.0 mi SW 4.6 mph - N/A   Clear
12:55 PM 82.9 °F 83.2 °F 60.1 °F 46% 29.82 in 10.0 mi West 8.1 mph - N/A   Clear
1:55 PM 81.0 °F 81.3 °F 59.0 °F 47% 29.81 in 10.0 mi WSW 9.2 mph - N/A   Clear
2:55 PM 80.1 °F 80.7 °F 59.0 °F 48% 29.80 in 10.0 mi West 10.4 mph - N/A   Clear
3:55 PM 78.1 °F - 57.9 °F 50% 29.80 in 10.0 mi West 8.1 mph - N/A   Clear
4:55 PM 77.0 °F - 57.9 °F 52% 29.79 in 10.0 mi West 9.2 mph - N/A   Clear
5:55 PM 75.0 °F - 57.9 °F 55% 29.78 in 10.0 mi Variable 5.8 mph - N/A   Clear
6:55 PM 71.1 °F - 59.0 °F 66% 29.78 in 10.0 mi SW 4.6 mph - N/A   Clear
7:55 PM 68.0 °F - 60.1 °F 76% 29.79 in 10.0 mi WSW 5.8 mph - N/A   Clear
8:55 PM 66.0 °F - 60.1 °F 81% 29.81 in 10.0 mi WNW 3.5 mph - N/A   Clear
9:55 PM 66.0 °F - 60.1 °F 81% 29.83 in 10.0 mi West 4.6 mph - N/A   Clear
10:55 PM 64.9 °F - 60.1 °F 84% 29.83 in 10.0 mi West 3.5 mph - N/A   Clear
11:55 PM 64.9 °F - 60.1 °F 84% 29.83 in 10.0 mi West 3.5 mph - N/A   Clear